Sitka, AK

8:25 PM AKDT on April 25, 2018 (GMT -0800)
Sitka Rocky Gutierrez

Weather History for PASI - October, 2011

Change the Weather History Date:

Wednesday, October 26, 2011

  Actual Average Record
Temperature  
Mean Temperature 42 °F -  
Max Temperature 48 °F 48 °F 58 °F (1952)
Min Temperature 39 °F 39 °F 25 °F (1971)
Degree Days  
Heating Degree Days 22    
Moisture  
Dew Point 39 °F    
Average Humidity 79    
Maximum Humidity 93    
Minimum Humidity 68    
Precipitation  
Precipitation 0.53 in - - ()
Sea Level Pressure  
Sea Level Pressure 29.67 in    
Wind  
Wind Speed 12 mph (SW)    
Max Wind Speed 23 mph    
Max Gust Speed 37 mph    
Visibility 8 miles    
Events Rain    
T = Trace of Precipitation, MM = Missing Value Source: NWS Daily Summary

Daily Weather History Graph

Daily Weather History Graph

Search for Another Location

Airport or City:

Astronomy

Oct. 26, 2011 Rise Set
Actual Time 7:58 AM AKDT 5:31 PM AKDT
Civil Twilight 7:18 AM AKDT 6:11 PM AKDT
Nautical Twilight 6:33 AM AKDT 6:55 PM AKDT
Astronomical Twilight 5:49 AM AKDT 7:40 PM AKDT
Moon 8:09 AM AKDT 5:01 PM AKDT
Length of Visible Light 10h 52m
Length of Day
9h 32m
Waning Crescent, 0% of the Moon is Illuminated
Oct 26
Waning Crescent
Nov 2
First Quarter
Nov 10
Full
Nov 18
Last Quarter
Nov 24
New

Hourly Weather History & Observations

Time (AKDT) Temp. Windchill Dew Point Humidity Pressure Visibility Wind Dir Wind Speed Gust Speed Precip Events Conditions
12:31 AM 41.0 °F 38.0 °F 39.2 °F 93% 29.50 in 10.0 mi ESE 4.6 mph - 0.06 in Rain Light Rain
12:53 AM 39.9 °F 32.9 °F 37.0 °F 89% 29.49 in 10.0 mi East 11.5 mph - 0.06 in   Overcast
1:44 AM 41.0 °F 35.2 °F 37.4 °F 87% 29.49 in 10.0 mi ENE 9.2 mph 20.7 mph N/A   Overcast
1:53 AM 42.1 °F 37.1 °F 37.9 °F 85% 29.49 in 8.0 mi ESE 8.1 mph 18.4 mph 0.02 in Rain Light Rain
2:10 AM 42.8 °F 38.6 °F 39.2 °F 87% 29.50 in 10.0 mi SSE 6.9 mph - 0.04 in   Overcast
2:26 AM 44.6 °F 39.2 °F 39.2 °F 81% 29.49 in 10.0 mi South 10.4 mph - 0.04 in   Overcast
2:53 AM 45.0 °F 39.7 °F 39.0 °F 80% 29.49 in 10.0 mi SSE 10.4 mph - 0.04 in   Overcast
3:42 AM 46.4 °F 38.7 °F 39.2 °F 76% 29.49 in 10.0 mi SSW 20.7 mph - 0.00 in   Overcast
3:53 AM 46.0 °F 39.0 °F 37.9 °F 73% 29.50 in 10.0 mi SSW 17.3 mph 26.5 mph 0.00 in   Overcast
4:31 AM 44.6 °F 36.9 °F 39.2 °F 81% 29.50 in 10.0 mi WSW 18.4 mph 27.6 mph 0.05 in Rain Light Rain
4:53 AM 45.0 °F 37.1 °F 39.9 °F 82% 29.52 in 10.0 mi SW 19.6 mph - 0.05 in   Overcast
5:53 AM 46.0 °F 38.8 °F 39.0 °F 76% 29.53 in 10.0 mi SSW 18.4 mph 28.8 mph 0.00 in Rain Light Rain
6:00 AM 46.4 °F 39.2 °F 39.2 °F 76% 29.53 in 10.0 mi SSW 18.4 mph 26.5 mph 0.00 in   Mostly Cloudy
6:23 AM 44.6 °F 37.8 °F 37.4 °F 76% 29.53 in 8.0 mi SW 15.0 mph - 0.01 in Rain Small Hail
6:53 AM 46.0 °F 38.3 °F 37.9 °F 73% 29.55 in 7.0 mi SW 20.7 mph - 0.01 in   Overcast
7:53 AM 44.1 °F 38.1 °F 37.9 °F 79% 29.55 in 9.0 mi SSE 11.5 mph - 0.00 in Rain Light Rain
8:43 AM 46.4 °F 40.1 °F 39.2 °F 76% 29.56 in 9.0 mi SSW 15.0 mph 24.2 mph 0.00 in   Overcast
8:53 AM 45.0 °F 37.4 °F 39.0 °F 80% 29.56 in 7.0 mi SSW 18.4 mph 29.9 mph 0.00 in Rain Light Rain
9:38 AM 44.6 °F 38.1 °F 39.2 °F 81% 29.56 in 4.0 mi SSE 13.8 mph - 0.00 in Rain Light Rain
9:53 AM 45.0 °F 36.4 °F 41.0 °F 86% 29.57 in 3.0 mi SW 23.0 mph 28.8 mph 0.03 in Rain Rain
10:53 AM 46.0 °F 41.0 °F 41.0 °F 83% 29.59 in 4.0 mi WSW 10.4 mph - 0.06 in Rain Light Rain
11:23 AM 46.4 °F 39.0 °F 41.0 °F 81% 29.61 in 4.0 mi NW 19.6 mph 28.8 mph 0.02 in Rain Small Hail
11:34 AM 44.6 °F 38.8 °F 39.2 °F 81% 29.62 in 6.0 mi WNW 11.5 mph - 0.03 in Rain Light Rain
11:41 AM 44.6 °F 40.2 °F 39.2 °F 81% 29.62 in 9.0 mi West 8.1 mph - 0.03 in Rain Light Rain
11:53 AM 46.0 °F 43.9 °F 41.0 °F 83% 29.63 in 9.0 mi WSW 4.6 mph - 0.03 in   Overcast
12:53 PM 46.9 °F - 39.0 °F 74% 29.67 in 10.0 mi West 10.4 mph - 0.00 in   Mostly Cloudy
1:53 PM 45.0 °F 37.9 °F 39.0 °F 80% 29.70 in 8.0 mi West 16.1 mph 33.4 mph 0.03 in Rain Light Rain
2:53 PM 46.0 °F 37.8 °F 39.0 °F 76% 29.74 in 9.0 mi West 23.0 mph 35.7 mph 0.01 in   Overcast
3:53 PM 46.0 °F 39.6 °F 36.0 °F 68% 29.77 in 10.0 mi West 15.0 mph 26.5 mph 0.00 in   Overcast
4:08 PM 46.4 °F 42.4 °F 37.4 °F 71% 29.77 in 10.0 mi NW 8.1 mph - N/A   Overcast
4:53 PM 46.9 °F - 37.0 °F 68% 29.80 in 10.0 mi West 12.7 mph - 0.00 in   Overcast
5:53 PM 45.0 °F 37.4 °F 36.0 °F 71% 29.83 in 7.0 mi WSW 18.4 mph 36.8 mph 0.00 in Rain Light Rain
6:53 PM 45.0 °F 39.7 °F 37.0 °F 74% 29.84 in 10.0 mi WSW 10.4 mph 16.1 mph 0.00 in   Overcast
7:53 PM 46.9 °F - 39.0 °F 74% 29.86 in 8.0 mi WSW 20.7 mph 27.6 mph 0.00 in Rain Light Rain
8:53 PM 46.0 °F 40.2 °F 39.9 °F 79% 29.89 in 10.0 mi SSW 12.7 mph - 0.01 in   Overcast
9:09 PM 44.6 °F 39.2 °F 39.2 °F 81% 29.89 in 6.0 mi South 10.4 mph 19.6 mph 0.00 in Rain Light Rain
9:32 PM 44.6 °F 38.8 °F 39.2 °F 81% 29.90 in 9.0 mi WSW 11.5 mph 23.0 mph 0.02 in Rain Light Rain
9:53 PM 46.0 °F 40.6 °F 39.0 °F 76% 29.90 in 10.0 mi SW 11.5 mph - 0.02 in   Overcast
10:22 PM 44.6 °F 38.8 °F 39.2 °F 81% 29.91 in 2.5 mi SSW 11.5 mph 18.4 mph 0.12 in Rain Rain
10:36 PM 44.6 °F 40.2 °F 39.2 °F 81% 29.92 in 4.0 mi WSW 8.1 mph 23.0 mph 0.15 in Rain Light Rain
10:53 PM 45.0 °F 41.2 °F 39.9 °F 82% 29.92 in 10.0 mi WSW 6.9 mph - 0.16 in   Overcast
11:25 PM 46.4 °F 41.5 °F 39.2 °F 76% 29.92 in 10.0 mi WSW 10.4 mph - N/A   Overcast
11:53 PM 45.0 °F 37.4 °F 37.9 °F 76% 29.93 in 8.0 mi WSW 18.4 mph 31.1 mph 0.00 in Rain Light Rain